Dewpoint
-5 -5 -4 -3 -3 -3 -3 2 4 5 6 6 4 4 6 7 7 6 5 5 4 2 1 1 3 4 4 5 6 7 7 8 9 8 8 8 8 9 8 7 6 6
-6 -5 -6 -8 -7 -6 -4 -0 2 3 4 2 -1 -3 -3 -0 1 1 1 5 8 8 4 3 3 4 5 6 8 9 10 10 11 11 10 9 9 9 9 9 7 6
-6 -6 -8 -10 -9 -7 -4 -1 1 2 1 -2 -6 -7 -6 -4 -2 -1 1 6 9 9 6 4 4 5 6 8 9 10 11 11 11 11 11 11 10 10 10 10 9 7
-5 -6 -9 -9 -8 -5 -2 -0 1 1 1 -1 -3 -4 -3 -1 1 1 3 5 6 6 6 5 5 5 6 7 8 9 10 10 11 11 11 11 11 11 11 10 9 8
-4 -6 -7 -8 -8 -5 -2 -1 -1 -0 2 3 2 0 1 3 5 5 3 3 4 5 6 6 5 5 4 5 6 7 7 8 9 10 10 11 11 11 10 11 10 9
-3 -2 -4 -5 -6 -5 -3 -3 -3 -1 1 3 3 4 5 6 7 6 5 4 5 6 7 6 5 4 4 3 4 5 6 6 8 9 9 10 10 10 10 10 10 10
-2 -1 -1 -2 -3 -4 -3 -3 -3 -2 0 2 4 5 7 7 7 7 6 7 7 7 6 5 5 5 6 6 5 6 6 7 9 10 10 10 10 10 10 11 11 11
-2 -0 0 -1 -2 -4 -3 -3 -3 -2 0 2 4 7 8 8 8 8 8 8 8 7 7 6 6 7 8 7 8 8 8 8 9 10 10 9 9 10 10 10 10 10
1 2 1 -1 -3 -4 -3 -2 -3 -2 0 1 4 7 9 9 9 8 8 8 8 8 7 7 7 7 8 8 8 8 8 9 9 9 8 9 9 10 10 10 10 9
5 5 3 -0 -4 -4 -2 -1 -1 -0 2 3 4 7 8 8 8 8 7 7 6 6 6 7 8 8 8 8 8 8 9 8 8 8 8 8 8 9 9 9 9 9
6 3 3 1 -4 -3 -0 0 -0 1 4 5 6 7 7 7 7 7 6 6 6 6 6 8 9 9 8 8 7 7 7 7 7 8 8 8 6 6 7 8 8 8
6 1 3 0 -6 -3 -0 -0 -1 1 4 6 7 7 8 8 7 6 6 7 7 6 7 9 9 9 8 7 5 5 6 7 8 8 8 7 5 4 5 5 6 6
7 2 4 -0 -7 -4 -2 -4 -3 -0 3 6 9 10 9 7 6 6 6 6 6 6 8 10 10 9 8 6 5 6 7 7 7 6 6 6 5 4 4 5 5 5
10 8 6 1 -4 -4 -6 -7 -4 -2 2 7 10 10 7 4 4 6 7 6 6 7 9 11 10 9 8 7 6 6 7 7 7 6 6 5 6 6 6 6 7 6
10 8 6 4 2 -1 -5 -6 -5 -3 3 7 8 6 4 4 6 7 6 6 8 9 10 11 10 8 6 6 6 6 7 8 7 7 7 7 7 7 7 8 8 8
7 7 7 7 6 1 -4 -5 -3 -2 3 5 4 2 3 4 5 5 4 6 8 9 10 10 9 7 5 5 5 7 8 8 8 7 7 8 8 8 8 8 9 8
7 7 9 8 5 1 -4 -3 -2 -1 1 2 1 2 3 3 3 2 3 5 7 9 10 9 7 6 6 6 6 7 8 8 8 8 8 8 8 8 8 8 8 8
7 8 11 9 4 1 -2 -2 -0 1 2 2 2 3 4 4 3 2 4 6 8 9 10 8 6 6 7 7 7 8 8 8 8 8 8 8 8 8 6 6 6 7
8 9 11 9 5 4 1 -0 1 2 2 3 4 3 4 4 4 5 7 8 9 10 9 7 6 7 7 7 7 7 8 8 8 8 8 8 8 7 6 5 6 7
8 10 11 8 6 6 5 3 3 2 2 3 4 4 4 5 5 7 8 8 9 9 9 8 8 8 7 7 7 7 7 8 8 8 8 7 8 7 5 5 6 7
9 11 11 9 8 8 7 6 4 3 2 4 4 4 4 5 6 7 7 8 9 10 10 10 9 8 8 7 7 7 7 8 8 8 7 6 6 6 5 5 6 7
10 11 11 10 10 9 9 8 6 3 1 2 3 4 4 5 6 7 8 9 10 10 10 10 10 9 8 8 7 7 7 7 7 8 7 6 3 4 5 5 5 6
11 11 11 11 11 10 10 9 6 2 1 2 3 4 5 6 8 8 9 10 9 9 9 10 10 9 8 7 7 7 7 7 7 8 7 5 2 2 4 5 6 6
11 9 9 12 12 10 9 9 6 3 1 2 4 5 7 9 9 10 10 9 7 8 9 10 10 9 8 7 7 7 7 7 7 8 6 4 2 1 3 4 5 5
9 4 7 12 12 10 8 7 6 3 2 3 6 7 9 10 10 10 10 9 8 8 10 10 10 9 8 8 8 7 7 7 7 7 7 5 3 2 2 3 4 4
7 3 7 11 10 8 7 6 5 4 3 5 7 9 10 10 10 10 9 8 8 8 9 10 9 8 8 8 8 8 8 7 7 7 7 5 4 2 2 2 2 2
Wind_Speed
10 8 8 8 9 10 11 11 11 11 12 12 11 12 12 12 11 10 10 10 8 6 5 4 3 3 3 3 3 3 4 5 5 6 6 6 5 5 5 6 7 7
11 9 8 9 9 10 10 10 10 10 10 10 10 10 10 11 10 9 8 8 8 8 8 6 5 4 5 4 4 5 7 9 9 8 9 9 8 8 8 8 9 9
12 10 9 8 8 8 9 10 9 9 9 9 9 9 9 8 8 7 6 7 9 11 10 8 7 6 7 6 6 7 9 11 11 11 11 12 11 10 10 11 11 11
13 11 9 8 8 8 9 9 9 8 9 9 8 8 7 6 6 7 7 8 11 12 11 10 9 9 8 8 8 9 10 12 12 13 14 14 14 13 12 13 14 13
13 11 10 9 9 9 9 9 8 7 7 8 7 7 6 6 8 9 9 9 10 12 12 11 10 10 10 10 10 11 11 13 13 13 15 16 17 15 13 15 16 16
14 12 10 9 9 10 10 8 7 6 7 7 7 6 5 6 8 9 9 8 9 11 12 12 11 10 11 11 11 11 12 12 13 14 15 16 17 16 14 15 17 18
15 13 11 10 10 10 10 8 7 6 6 7 7 6 6 6 7 8 7 8 8 9 9 10 10 10 10 10 10 10 11 12 13 15 17 17 16 15 15 17 19 21
16 13 11 11 10 10 11 9 8 7 7 7 7 6 7 8 8 8 8 8 8 8 9 10 10 10 9 9 9 10 11 12 14 16 18 19 19 19 18 18 20 23
17 14 12 11 11 12 12 10 9 9 9 7 6 6 8 10 10 10 10 10 9 10 11 10 10 10 9 10 11 11 12 13 15 18 19 20 22 21 20 19 20 23
19 16 14 12 12 13 13 12 10 10 9 7 6 7 9 10 11 11 11 10 10 10 10 9 10 11 12 12 12 13 14 15 17 18 18 19 19 18 17 18 19 20
21 16 16 14 12 14 14 12 11 10 10 8 8 9 9 10 11 12 11 11 11 11 10 10 11 13 14 14 15 14 15 15 16 16 16 17 17 16 16 16 18 19
23 18 18 14 12 14 14 12 10 9 9 9 9 10 10 12 14 13 12 12 12 12 11 11 13 14 16 17 16 14 12 13 14 14 15 16 16 15 15 16 17 19
25 20 19 15 11 13 13 11 10 9 10 11 11 13 14 15 15 13 12 12 12 11 11 12 13 15 16 16 13 10 10 12 13 14 15 16 17 16 15 16 17 18
25 19 19 16 12 12 12 10 9 9 10 12 13 15 16 15 13 13 14 13 11 10 11 13 14 16 15 13 11 10 11 13 14 15 16 17 18 18 17 17 18 18
24 20 21 18 14 13 11 9 9 9 11 12 13 15 15 14 14 15 15 12 10 11 12 13 15 15 15 14 12 12 13 14 16 16 17 18 19 20 20 19 19 19
25 23 24 21 18 14 11 10 9 10 11 12 13 14 13 13 13 14 12 10 10 10 11 13 14 13 13 13 13 13 15 17 18 18 19 20 20 20 22 22 21 21
25 24 27 24 19 15 11 11 10 11 12 12 13 13 12 12 11 11 10 9 9 11 12 13 14 13 12 13 13 15 17 19 20 21 20 20 20 20 21 22 22 22
22 24 30 26 19 16 13 11 11 13 14 14 14 14 12 11 10 10 10 10 11 13 14 14 13 13 14 15 15 16 18 19 21 22 20 20 19 19 20 20 21 21
20 24 31 25 19 17 14 12 14 15 15 15 15 13 12 12 11 11 12 13 14 15 15 14 14 15 16 17 18 19 19 19 20 20 19 18 19 20 19 18 18 18
22 28 31 23 18 19 16 15 16 16 16 16 15 13 13 13 13 14 14 15 17 17 17 17 17 18 18 19 20 20 20 19 18 17 17 18 19 20 19 17 16 16
20 27 29 23 21 22 20 18 17 17 17 17 16 14 14 14 14 15 15 17 20 21 20 19 19 20 20 21 21 20 19 19 18 17 17 18 20 20 18 17 17 16
21 26 28 28 27 24 23 21 18 18 18 17 17 16 15 15 15 16 17 20 23 23 21 20 20 21 22 22 22 21 21 21 21 20 19 19 20 20 18 17 17 17
20 25 29 33 32 27 24 22 20 18 17 17 19 18 17 18 19 19 19 20 22 21 19 19 21 21 22 22 23 23 22 22 22 21 19 18 19 21 20 18 17 18
22 25 30 35 34 28 25 23 22 20 19 19 20 21 22 25 25 22 20 21 21 19 18 21 22 21 21 22 23 22 21 21 22 21 20 20 21 22 22 20 18 19
26 25 28 35 35 29 25 24 23 21 20 21 23 25 26 28 26 21 20 22 23 21 20 22 22 20 19 20 20 21 21 21 22 22 22 23 24 24 23 21 20 21
27 24 27 31 31 28 26 25 23 21 22 23 25 26 27 28 24 18 16 18 20 19 19 19 19 17 16 17 19 21 22 22 22 24 25 24 23 23 23 21 21 22
Wind_Direction
204 206 209 216 226 225 222 221 224 230 235 240 242 237 232 233 241 250 258 264 273 289 299 295 289 289 288 292 312 328 326 330 336 333 327 321 307 293 290 298 308 313
196 199 206 210 216 214 212 216 221 230 238 240 234 228 228 233 240 249 256 263 275 291 299 297 292 290 295 298 305 314 316 318 322 319 313 312 308 294 282 285 296 304
194 194 202 205 208 206 206 212 217 227 234 231 222 218 221 226 232 246 261 271 277 284 291 295 294 289 290 292 295 302 306 310 315 312 306 303 303 296 285 283 289 295
194 191 196 202 207 207 207 208 212 220 224 220 216 216 218 231 247 260 273 279 279 282 287 291 290 287 285 282 283 286 288 294 301 305 304 299 293 291 288 287 289 289
196 192 195 199 207 210 211 209 209 221 226 220 220 223 228 247 264 271 276 279 283 287 288 287 287 287 286 282 279 281 283 289 296 301 304 302 297 295 289 284 288 288
200 196 198 202 208 215 218 213 210 223 233 229 225 229 241 255 267 272 273 280 289 290 287 286 290 295 296 292 287 287 289 296 306 310 310 307 302 299 291 284 288 287
203 201 202 207 213 222 224 215 210 216 223 226 223 227 243 257 271 277 277 286 296 297 292 290 296 304 306 301 295 295 297 304 310 309 307 306 300 296 292 290 291 289
205 203 205 212 218 226 227 216 207 204 205 213 221 231 245 258 273 281 281 288 301 311 310 303 303 307 306 303 302 304 305 305 304 300 300 303 302 296 291 289 290 290
208 207 207 211 218 226 228 216 201 195 199 211 225 239 254 266 276 282 287 298 310 316 315 309 308 309 306 304 302 299 298 296 295 296 298 301 302 297 288 283 284 288
210 211 212 212 216 222 224 214 200 194 199 211 229 245 260 268 272 280 290 301 310 310 309 306 304 303 300 298 295 291 291 292 293 295 296 298 298 292 283 278 279 284
207 211 215 212 213 219 220 213 202 198 202 214 233 245 257 265 268 276 283 291 298 298 296 295 294 293 293 295 296 293 292 295 295 294 295 297 295 289 283 280 279 281
208 212 211 205 205 213 215 213 207 202 208 220 232 238 252 263 264 269 275 280 284 285 286 289 289 292 294 294 293 293 297 302 304 303 300 297 296 294 292 288 284 285
212 214 208 196 195 204 208 211 209 206 214 226 234 241 252 258 258 264 274 276 276 276 280 283 287 292 293 289 286 292 302 307 309 309 305 303 302 302 300 297 296 299
211 217 213 200 192 198 204 208 205 207 218 227 235 243 250 253 255 264 269 270 274 278 277 278 284 289 287 284 286 293 299 302 304 303 302 304 304 303 303 302 304 308
208 219 216 206 201 201 205 210 205 205 218 228 236 244 248 250 254 258 260 266 277 281 278 277 282 287 288 287 287 288 291 294 296 295 295 297 298 298 300 300 299 304
208 217 211 204 206 208 209 212 206 204 215 226 233 240 245 248 250 253 255 266 281 283 280 277 279 290 297 293 283 280 285 288 289 293 295 295 295 295 297 297 295 298
205 211 209 205 206 209 211 213 211 210 214 221 230 237 243 245 247 252 254 262 276 280 278 276 279 288 293 290 283 279 282 286 290 296 300 298 296 296 298 298 295 294
203 205 207 208 206 207 211 214 218 221 222 226 234 240 245 244 245 254 259 260 264 267 271 277 283 284 283 285 285 282 283 288 294 298 300 299 299 301 302 301 297 292
216 211 208 210 211 210 212 215 221 227 229 231 237 242 247 246 248 258 263 263 261 261 267 276 282 280 277 279 282 282 285 289 291 294 296 298 301 303 304 303 300 295
224 214 209 215 218 214 215 218 225 232 234 236 239 243 247 248 251 258 264 267 266 263 265 272 277 275 273 277 281 281 283 286 286 286 289 294 297 299 302 302 299 297
218 208 212 226 224 218 221 222 228 237 240 241 240 240 247 252 254 259 266 270 269 266 266 269 273 273 271 274 277 276 277 281 281 279 282 290 294 295 297 299 298 297
212 204 219 232 226 223 225 224 232 242 244 245 242 240 247 253 256 263 268 273 276 276 276 274 272 273 273 274 277 278 279 282 281 278 283 291 294 293 293 294 296 298
207 208 227 234 228 226 228 228 236 242 245 248 244 242 247 252 256 260 262 270 279 284 285 281 276 276 279 282 286 288 286 284 280 279 283 289 291 294 294 294 295 298
201 216 232 232 229 230 233 234 238 244 250 251 247 248 250 249 251 254 259 270 280 285 287 284 279 279 285 291 294 292 287 282 277 276 280 284 288 294 295 295 297 298
202 217 224 225 230 235 237 237 241 249 255 252 251 251 250 250 254 261 269 274 275 275 274 273 274 280 290 294 294 291 286 281 276 276 281 285 288 289 290 295 302 302
212 220 214 217 228 236 239 241 244 253 257 255 254 252 251 254 257 265 274 273 270 269 266 266 273 284 289 287 287 286 284 280 278 279 282 284 285 285 289 298 305 304
Height
1546 1546 1546 1546 1547 1547 1548 1548 1548 1549 1549 1549 1549 1549 1549 1549 1549 1550 1550 1550 1550 1549 1549 1548 1548 1548 1548 1548 1548 1547 1547 1547 1547 1547 1546 1546 1545 1545 1544 1544 1543 1543
1543 1543 1544 1544 1545 1545 1545 1546 1546 1547 1547 1547 1547 1547 1547 1547 1548 1548 1549 1549 1549 1549 1548 1547 1547 1547 1547 1547 1547 1547 1547 1546 1546 1546 1545 1545 1545 1544 1543 1543 1542 1541
1541 1541 1542 1542 1543 1543 1543 1544 1544 1545 1545 1545 1545 1545 1545 1546 1546 1547 1547 1548 1548 1548 1547 1547 1546 1546 1546 1546 1546 1546 1545 1545 1545 1545 1544 1544 1543 1543 1542 1541 1540 1540
1538 1539 1540 1540 1541 1541 1541 1542 1543 1543 1544 1544 1544 1544 1544 1545 1546 1546 1546 1547 1547 1547 1547 1546 1545 1545 1545 1545 1544 1544 1544 1544 1544 1543 1543 1542 1541 1541 1540 1540 1539 1538
1536 1537 1537 1538 1539 1539 1540 1540 1541 1542 1542 1543 1543 1544 1544 1544 1545 1545 1545 1546 1546 1546 1546 1545 1544 1544 1543 1543 1543 1543 1542 1542 1542 1542 1541 1541 1539 1539 1539 1538 1537 1536
1534 1535 1536 1536 1537 1538 1538 1538 1539 1540 1541 1542 1543 1543 1543 1544 1544 1545 1544 1545 1545 1545 1544 1544 1543 1542 1542 1542 1541 1541 1541 1540 1541 1540 1540 1539 1538 1537 1537 1536 1535 1534
1533 1534 1534 1535 1535 1536 1537 1537 1537 1538 1539 1541 1542 1542 1543 1543 1544 1544 1543 1543 1543 1543 1543 1543 1542 1542 1541 1540 1540 1540 1540 1539 1539 1539 1538 1538 1537 1536 1535 1534 1533 1532
1531 1532 1533 1533 1534 1535 1536 1535 1535 1536 1537 1539 1540 1541 1541 1542 1542 1543 1542 1542 1542 1541 1541 1541 1541 1541 1540 1539 1539 1539 1538 1538 1537 1537 1536 1535 1534 1533 1533 1532 1531 1530
1529 1530 1530 1531 1532 1533 1534 1534 1534 1534 1535 1536 1537 1539 1540 1540 1540 1541 1541 1540 1540 1540 1540 1540 1540 1539 1539 1538 1537 1537 1536 1536 1536 1535 1534 1533 1532 1531 1530 1530 1529 1528
1527 1529 1529 1529 1530 1532 1533 1533 1533 1532 1533 1534 1535 1536 1537 1538 1539 1539 1539 1538 1538 1538 1538 1538 1538 1538 1537 1536 1535 1535 1534 1534 1533 1532 1532 1531 1530 1529 1528 1528 1527 1525
1525 1527 1528 1527 1528 1530 1532 1532 1531 1531 1532 1532 1533 1534 1535 1536 1536 1537 1536 1536 1536 1536 1536 1536 1536 1536 1535 1534 1533 1533 1532 1531 1530 1530 1530 1529 1528 1527 1526 1525 1524 1523
1521 1524 1525 1525 1526 1528 1530 1530 1530 1529 1530 1530 1531 1532 1533 1533 1534 1534 1534 1534 1534 1534 1534 1534 1534 1534 1533 1532 1532 1531 1530 1529 1528 1527 1527 1526 1526 1525 1524 1523 1522 1521
1518 1521 1523 1523 1524 1525 1527 1528 1527 1527 1527 1528 1529 1529 1530 1531 1532 1532 1532 1532 1533 1533 1533 1532 1532 1532 1532 1531 1530 1529 1528 1527 1526 1525 1525 1524 1523 1523 1522 1521 1520 1518
1519 1523 1523 1521 1521 1523 1524 1525 1525 1525 1525 1526 1527 1527 1528 1529 1530 1530 1531 1531 1532 1531 1531 1531 1531 1530 1530 1530 1529 1528 1527 1526 1525 1523 1522 1522 1521 1520 1519 1518 1517 1516
1515 1518 1520 1520 1520 1520 1521 1522 1522 1523 1524 1524 1525 1526 1527 1527 1528 1529 1529 1530 1530 1529 1529 1529 1529 1529 1528 1528 1527 1527 1526 1524 1523 1522 1520 1519 1518 1517 1516 1515 1515 1514
1508 1512 1515 1516 1517 1518 1519 1519 1520 1521 1522 1523 1523 1524 1525 1525 1526 1527 1527 1528 1527 1527 1527 1527 1527 1527 1526 1526 1526 1525 1524 1523 1521 1520 1518 1517 1515 1514 1513 1513 1512 1511
1505 1510 1512 1512 1513 1515 1516 1517 1518 1519 1520 1521 1522 1522 1523 1523 1524 1524 1525 1525 1525 1525 1525 1524 1524 1524 1524 1524 1523 1522 1522 1520 1519 1517 1516 1514 1513 1512 1511 1510 1509 1508
1506 1508 1509 1509 1510 1512 1513 1515 1516 1517 1518 1519 1519 1520 1521 1521 1522 1522 1522 1522 1522 1522 1522 1521 1521 1521 1521 1521 1520 1520 1519 1517 1516 1515 1513 1512 1510 1509 1508 1506 1505 1504
1507 1506 1507 1508 1508 1510 1511 1512 1513 1514 1515 1516 1517 1518 1518 1519 1519 1520 1520 1520 1520 1519 1519 1519 1519 1519 1519 1518 1517 1516 1516 1515 1513 1512 1511 1509 1507 1506 1505 1503 1502 1501
1502 1503 1506 1508 1507 1508 1509 1510 1510 1511 1512 1514 1514 1515 1516 1516 1517 1517 1517 1517 1517 1517 1516 1516 1517 1516 1516 1515 1514 1513 1513 1512 1510 1509 1508 1506 1505 1503 1502 1500 1499 1499
1498 1502 1506 1507 1506 1507 1507 1507 1507 1508 1509 1511 1511 1512 1512 1513 1513 1514 1514 1514 1514 1514 1515 1515 1515 1514 1513 1512 1511 1510 1509 1508 1507 1506 1505 1504 1502 1500 1499 1498 1497 1496
1495 1500 1504 1504 1504 1505 1504 1504 1504 1505 1506 1507 1508 1508 1509 1509 1510 1511 1512 1512 1512 1513 1513 1512 1512 1511 1510 1509 1508 1508 1507 1505 1504 1503 1502 1501 1500 1498 1496 1495 1495 1494
1495 1497 1499 1499 1501 1501 1501 1501 1501 1502 1503 1504 1504 1505 1506 1507 1508 1508 1509 1509 1508 1508 1508 1508 1509 1508 1507 1506 1506 1505 1504 1503 1502 1501 1500 1499 1497 1495 1494 1493 1493 1491
1493 1493 1494 1495 1496 1497 1497 1498 1498 1499 1500 1501 1502 1503 1503 1503 1504 1504 1505 1505 1504 1504 1505 1506 1507 1506 1505 1504 1503 1502 1501 1500 1500 1498 1497 1496 1494 1493 1492 1490 1490 1489
1490 1489 1489 1490 1492 1494 1494 1495 1496 1497 1498 1499 1500 1500 1500 1501 1501 1502 1503 1503 1502 1503 1504 1505 1504 1503 1502 1501 1500 1499 1498 1497 1496 1495 1494 1493 1492 1490 1489 1488 1487 1486
1487 1486 1486 1487 1489 1491 1492 1493 1494 1495 1496 1497 1497 1497 1498 1498 1499 1500 1500 1500 1499 1500 1500 1501 1501 1500 1498 1497 1497 1496 1495 1494 1493 1492 1491 1490 1489 1488 1486 1485 1484 1482